Back to catalog

JILIN-01 KUANFU 01C

AliveScienceSSO
NORAD 52443·PAYLOAD·🇨🇳 China

Launched May 5, 2022 from Taiyuan Satellite Launch Center

Loading…

Next Passes (next 24 hours)

TLE

FreshSource: Space-Track

Epoch: Sep 14, 2026, 12:10 UTC

1 52443U 22048A   26257.50741867  .00002075  00000-0  13166-3 0  9998
2 52443  97.5192 333.0287 0018550  18.7839 341.4071 15.09872767240675

Track JILIN-01 KUANFU 01C in real time with AllMySat

Download on the App Store